This is the latest recevied weather packets stored in our database for station/object N4RCT. If no packets are shown the sender has not sent any weather packets the latest 10 day(s).
| Time | Temp. | Humidity | Pressure | Rain* | Wind** | Luminosity | Snow |
|---|---|---|---|---|---|---|---|
| 1777760139 | 18.33° C | 39% | 1013.3 hPa | 0 mm | - | 43 W/m² | - |
| 1777759837 | 18.33° C | 38% | 1013.2 hPa | 0 mm | - | 42 W/m² | - |
| 1777759532 | 18.89° C | 39% | 1013.2 hPa | 0 mm | - | 49 W/m² | - |
| 1777759229 | 18.89° C | 38% | 1013.3 hPa | 0 mm | - | 70 W/m² | - |
| 1777758926 | 18.89° C | 40% | 1013.1 hPa | 0 mm | - | 60 W/m² | - |
| 1777758623 | 18.89° C | 40% | 1013 hPa | 0 mm | - | 48 W/m² | - |
| 1777758320 | 18.33° C | 44% | 1013.1 hPa | 0 mm | - | 58 W/m² | - |
| 1777758018 | 18.89° C | 40% | 1013.2 hPa | 0 mm | - | 64 W/m² | - |
| 1777757714 | 18.89° C | 43% | 1013 hPa | 0 mm | - | 91 W/m² | - |
| 1777757412 | 18.89° C | 40% | 1013 hPa | 0 mm | - | 127 W/m² | - |
| 1777757111 | 18.33° C | 43% | 1012.9 hPa | 0 mm | - | 59 W/m² | - |
| 1777756808 | 18.89° C | 41% | 1013.1 hPa | 0 mm | - | 66 W/m² | - |
| 1777756504 | 18.89° C | 41% | 1012.7 hPa | 0 mm | - | 75 W/m² | - |
| 1777756201 | 18.89° C | 41% | 1013 hPa | 0 mm | - | 68 W/m² | - |
| 1777755898 | 18.89° C | 41% | 1013.1 hPa | 0 mm | - | 88 W/m² | - |
| 1777755595 | 18.89° C | 41% | 1012.9 hPa | 0 mm | - | 104 W/m² | - |
| 1777755291 | 19.44° C | 41% | 1012.7 hPa | 0 mm | - | 132 W/m² | - |
| 1777754988 | 19.44° C | 40% | 1012.9 hPa | 0 mm | - | 97 W/m² | - |
| 1777754685 | 18.89° C | 43% | 1012.8 hPa | 0 mm | - | 98 W/m² | - |
| 1777754383 | 18.89° C | 42% | 1012.9 hPa | 0 mm | - | 92 W/m² | - |
| 1777754080 | 18.89° C | 39% | 1013 hPa | 0 mm | - | 235 W/m² | - |
| 1777753776 | 18.89° C | 41% | 1013 hPa | 0 mm | - | 256 W/m² | - |
| 1777753473 | 19.44° C | 40% | 1013.2 hPa | 0 mm | - | 78 W/m² | - |
| 1777753171 | 18.89° C | 40% | 1013 hPa | 0 mm | - | 69 W/m² | - |
| 1777752866 | 19.44° C | 39% | 1013.2 hPa | 0 mm | - | 75 W/m² | - |
* Rain latest hour (hover to see other rain measurements)
** Current wind speed in m/s (hover to see current wind gust speed)